全球卫星定位系统 GPS 71星 (NAVSTAR 71 (USA 256))

导读

NAVSTAR 71(USA 256)是美国于2014年8月2日发射的GPS导航卫星,属于美国第二代GPS现代化卫星,旨在替代老旧卫星,增强全球定位系统的服务能力。该卫星运行在约20200公里高度的中地球轨道(MEO),轨道周期12小时,可为全球用户提供高精度的定位、导航和授时服务,支撑美国军方与民用领域的各类定位需求,是美国GPS全球卫星导航系统空间星座的重要组成部分。

基本信息
目录编号:
40105
目录名称:
NAVSTAR 71 (USA 256)
国际标识:
2014-045A
轨道中心:
EARTH
卫星名称:
GPS 71星
卫星全名:
全球卫星定位系统 GPS 71星 (NAVSTAR 71 (USA 256))
卫星状态:
在轨 (已飞行4332 天)
发射日期:
2014-08-02 UTC
国别 :
美国 (US)
星等 :
--
轨道信息
数据来源 国际轨道数据 AOE轨道数据
星历时间 2026-06-12T09:37:16+0800
17小时前
查看轨道信息
2026-06-12T16:00:00+0800
10小时前
查看轨道信息
半长轴 26560.852km 26560.896km
偏心率 0.0033078 0.0033098
轨道倾角 55.350° 55.350°
近地点辐角 118.310° 118.209°
升交点赤经 88.669° 88.658°
平近点角 242.009° 74.017°
近地点 20094.857km 20094.847km
远地点 20270.573km 20270.671km
周期 717.997分钟 717.999分钟
每日圈数 2.005579 2.005574
详细信息
平衡模式:
三轴稳定
覆盖范围:
全球
运营商:
美国太空军
运营商所在国:
美国
制造商(研发单位):
波音公司
制造商所在国:
美国
使用方式:
暂无
工作目标:
提供军用及民用全球定位与导航服务。
预期寿命:
12年
卫星简介
全球定位系统(英语:Global Positioning System,通常简称GPS),又称全球卫星定位系统,是美国国防部研制,美国太空军运营与维护的中地球轨道卫星导航系统。它可以为地球表面约98%的地区提供准确的定位、测速和高精度的标准时间。全球定位系统可满足位于全球地面任何一处或近地空间的军事用户连续且精确地确定三维位置、三维运动和时间的需求。该系统包括太空中的31颗GPS人造卫星.该卫星仍在工作。
2D轨道图
3D轨道图
轨道高度分析图
轨道倾角分析图
轨道综合分析图
查看轨道综合分析图